Simultaneous Nadir Overpasses (SNOs) Predictions

Prediction of SNOs between METOP-B and NOAA-19 Satellite Orbit:

Table of predicted SNOs for the next 14.0 days since TLE Epoch: 7/3/2021
Index Date (METOP-B) Time (METOP-B) Lat,Lon (METOP-B) SZA (METOP-B ) Date (NOAA-19) Time (NOAA-19) Lat,Lon (NOAA-19) SZA (NOAA-19 ) Distance(km) Time Diff (sec)
1 07/03/2021 12:10:13 80.56, 26.57 58.80 07/03/2021 12:09:08 80.55, 26.56 58.76 1.08 65
2 07/03/2021 13:00:55 -80.55,-166.30 121.23 07/03/2021 13:00:08 -80.55,-166.20 121.24 1.87 47
3 07/03/2021 13:51:35 80.55, 1.10 58.78 07/03/2021 13:51:08 80.55, 1.16 58.77 1.35 27
4 07/03/2021 14:42:16 -80.56, 168.56 121.20 07/03/2021 14:42:08 -80.55, 168.41 121.23 3.20 8
5 07/03/2021 15:32:57 80.54, -24.37 58.77 07/03/2021 15:33:08 80.54, -24.23 58.79 2.64 11
6 07/03/2021 16:23:38 -80.55, 143.09 121.21 07/03/2021 16:24:08 -80.54, 143.02 121.22 1.70 30
7 07/03/2021 17:14:18 80.56, -49.51 58.80 07/03/2021 17:15:08 80.54, -49.62 58.80 2.97 50
8 07/03/2021 18:05:00 -80.54, 117.62 121.23 07/03/2021 18:06:08 -80.54, 117.63 121.21 0.70 68
9 07/14/2021 15:05:01 80.56, -17.13 60.09 07/14/2021 15:03:50 80.58, -17.29 60.07 3.44 71
10 07/14/2021 15:55:42 -80.57, 150.35 119.88 07/14/2021 15:54:52 -80.56, 150.30 119.91 1.43 50
11 07/14/2021 16:46:22 80.57, -42.27 60.13 07/14/2021 16:45:49 80.56, -42.34 60.10 2.24 33
12 07/14/2021 17:37:04 -80.56, 124.88 119.89 07/14/2021 17:36:52 -80.56, 124.91 119.90 0.68 12
13 07/14/2021 18:27:44 80.56, -67.74 60.13 07/14/2021 18:27:49 80.55, -67.73 60.12 1.32 5
14 07/14/2021 19:18:26 -80.55, 99.41 119.90 07/14/2021 19:18:52 -80.55, 99.52 119.88 1.90 26
15 07/14/2021 20:09:06 80.56, -93.21 60.12 07/14/2021 20:09:49 80.55, -93.13 60.13 1.66 43



Historial Predications of SNOs between METOP-B and NOAA-19
